Presure
244 248 246 248 243 240 234 239 243 264 240 223 229 231 228 231 228 231 236 228 236 232 235 222 232 225 228 227 221 217 231 228 222 225 227 249 238 246 218 244 217 215 204 204 200
229 229 231 240 239 239 238 235 233 233 237 234 231 230 229 225 225 223 219 221 220 221 221 220 219 222 223 221 219 213 218 216 211 219 224 227 219 213 211 213 228 235 246 251 227
214 219 227 231 218 210 211 206 204 207 206 204 205 208 209 209 209 208 213 213 210 209 208 206 203 205 206 206 205 206 206 209 201 210 213 211 211 219 214 220 221 220 222 226 241
199 196 196 197 207 209 205 204 205 204 207 209 211 215 216 220 218 216 215 214 216 217 217 219 216 215 216 212 211 209 207 208 205 200 205 210 207 208 210 209 205 205 212 213 224
207 208 213 214 219 222 222 220 230 235 234 230 222 220 218 217 217 215 214 213 212 212 213 213 213 214 215 216 219 222 239 242 248 252 238 242 225 211 210 212 212 215 205 206 205
233 237 247 241 231 228 221 215 208 204 200 197 208 213 217 222 225 224 226 219 230 228 227 219 203 212 213 216 262 285 286 226 260 235 227 230 237 257 269 243 223 216 213 204 209
233 234 218 211 204 197 194 203 208 212 211 211 210 206 212 260 257 256 258 286 288 288 284 285 277 274 280 286 284 300 308 320 333 301 290 272 266 265 256 239 256 277 235 216 218
210 203 198 194 185 194 189 196 195 208 212 213 266 260 254 255 252 229 260 267 272 274 268 265 264 266 277 248 286 293 301 321 336 312 344 348 312 296 290 279 279 265 229 269 230
197 192 187 204 195 191 195 201 195 203 202 259 256 249 257 245 240 242 241 239 235 251 236 237 233 234 246 235 193 198 253 308 307 321 310 333 349 356 359 320 300 292 280 272 242
181 185 183 178 192 190 186 200 198 203 204 238 249 250 242 179 186 219 229 224 224 221 236 216 247 219 196 218 280 300 187 285 348 341 329 320 333 343 369 365 358 309 291 289 279
180 176 179 179 179 183 173 195 201 202 215 211 202 239 226 233 227 230 224 224 230 215 224 230 216 223 245 257 259 286 293 315 342 328 435 424 477 461 416 415 421 333 353 292 292
177 182 180 176 177 173 180 192 200 201 194 216 224 209 227 218 213 168 178 214 186 222 220 215 225 251 252 255 268 271 286 310 327 329 370 428 474 491 477 476 418 468 210 340 337
182 176 177 179 177 177 175 187 189 185 191 206 216 217 217 216 217 209 198 207 190 201 211 210 227 233 238 254 262 265 269 294 331 336 341 353 453 436 416 421 414 410 422 430 449
182 180 180 173 171 173 172 178 186 185 185 199 204 227 220 212 211 202 207 200 207 206 221 203 227 216 236 234 256 257 268 279 306 338 324 370 384 430 410 410 406 405 406 409 421
182 180 179 173 173 167 174 174 186 184 174 189 192 207 207 219 209 201 199 194 193 201 200 221 222 223 224 215 241 240 266 267 275 312 336 327 374 371 418 419 414 407 403 407 412
175 172 176 175 172 170 173 172 175 180 178 180 180 195 207 215 200 205 199 188 203 199 203 206 215 222 224 218 232 232 249 256 261 274 328 295 179 362 363 442 443 429 441 447 449
178 173 177 172 169 167 171 170 173 181 178 176 187 190 192 217 205 205 202 196 186 205 211 208 219 218 218 220 215 230 240 253 269 269 280 332 332 324 391 363 431 445 441 427 437
181 173 181 172 169 170 169 169 169 179 178 174 182 182 180 166 204 202 194 203 201 204 203 206 211 216 214 211 214 219 241 246 262 266 263 279 324 332 326 365 366 444 448 426 436
183 182 173 172 173 146 161 167 167 174 176 170 183 163 190 200 205 194 202 199 192 194 196 199 204 216 213 216 214 226 226 233 245 260 265 268 274 329 332 325 378 361 473 442 427
189 182 179 174 176 167 177 168 166 170 162 172 177 165 181 186 192 196 190 204 195 193 189 195 200 201 214 211 217 216 230 234 241 248 257 261 269 276 327 328 322 382 358 353 421
192 187 184 180 170 167 166 171 167 160 173 170 171 174 183 187 175 205 191 199 205 195 192 200 202 204 219 211 210 214 216 226 224 239 250 257 258 271 282 331 331 322 381 361 435
201 190 185 187 171 180 152 170 168 169 175 133 170 176 165 186 177 199 195 193 180 197 195 201 205 208 211 207 213 213 211 223 231 229 236 251 257 257 266 286 328 327 323 383 358
201 199 193 190 183 183 174 175 162 167 167 173 173 174 175 162 188 163 189 197 196 206 195 198 199 201 208 210 206 208 207 219 216 224 225 236 245 254 256 256 260 323 325 327 382
213 203 199 194 191 191 170 174 165 164 172 169 177 168 132 169 150 161 166 198 195 179 199 193 193 194 197 214 207 203 213 204 214 215 215 225 236 238 248 263 263 275 331 328 358
199 219 204 198 190 191 186 174 168 167 164 174 169 164 177 182 167 177 169 183 192 191 192 191 187 184 188 206 209 210 197 209 203 214 219 223 224 233 241 255 267 273 279 340 333
224 200 212 209 189 186 185 179 178 168 167 170 167 170 168 175 179 174 185 176 182 191 198 185 188 181 187 203 203 208 204 197 164 208 219 215 187 221 233 242 254 265 272 288 341
223 214 205 212 199 193 190 187 176 175 177 171 172 168 172 169 176 182 173 161 170 167 175 200 188 181 182 197 195 203 199 207 203 174 202 202 211 206 224 231 240 251 267 276 293
Wind_Speed
8 8 13 16 24 26 30 29 26 13 31 44 40 40 43 41 43 40 36 47 38 42 43 55 48 55 56 57 65 71 63 64 77 76 79 63 64 61 82 71 90 88 87 91 91
9 10 9 3 7 8 11 12 13 13 14 18 23 25 27 32 33 36 39 40 44 44 46 49 50 50 53 54 60 66 64 63 75 79 72 74 74 72 80 83 76 71 65 68 79
5 5 5 6 8 14 14 20 24 23 25 28 30 31 34 36 38 41 43 45 48 49 52 54 55 57 59 61 65 67 71 67 77 84 78 75 77 73 75 75 74 73 68 64 64
9 12 13 14 13 14 17 20 21 25 26 28 31 33 36 38 40 43 46 48 51 52 55 57 59 61 64 66 70 71 76 77 79 88 86 81 81 82 81 79 81 81 75 72 67
8 9 10 10 12 13 14 16 16 14 15 18 22 25 27 30 32 35 37 39 42 44 47 49 51 54 56 59 62 67 68 73 79 85 95 92 88 88 88 85 82 86 84 79 75
4 1 3 7 7 6 4 7 11 14 17 21 23 25 27 29 32 35 38 40 43 45 46 48 50 52 55 59 57 59 65 71 76 86 92 89 88 91 90 97 94 89 88 85 84
10 13 12 9 7 7 7 9 11 14 16 19 22 24 27 20 21 21 22 22 22 24 27 29 32 35 40 43 47 49 52 56 61 75 79 87 92 96 97 91 94 91 99 95 93
17 13 11 9 4 5 6 13 14 20 21 20 16 14 15 14 14 19 18 25 29 30 31 33 34 38 42 39 47 50 53 54 55 68 65 67 85 93 95 96 97 99 88 96 102
17 14 10 12 12 11 18 20 19 21 19 19 17 15 16 15 17 21 24 29 24 34 32 38 43 45 50 43 54 54 48 46 54 60 65 72 80 83 83 94 99 101 100 99 96
11 13 9 1 17 17 17 26 24 21 22 22 24 25 23 30 29 17 27 25 31 33 39 23 38 42 43 34 42 40 55 48 46 46 58 67 83 86 85 91 87 98 100 104 106
8 6 2 2 4 16 10 29 26 26 30 27 23 27 25 31 33 35 35 38 43 41 49 47 44 48 47 47 50 51 56 58 54 51 50 49 47 56 67 68 66 83 91 108 110
5 5 2 3 7 8 20 31 31 32 29 35 27 20 33 36 35 30 36 46 33 50 48 51 53 50 52 56 54 57 62 67 60 55 51 33 33 33 48 49 40 39 44 92 100
4 5 3 6 9 14 16 31 32 30 32 43 40 24 33 40 45 48 42 45 31 46 55 51 55 55 58 59 61 64 68 75 71 60 60 40 32 31 33 34 28 29 36 41 43
3 2 3 7 9 14 18 26 34 34 35 43 45 44 40 45 43 47 48 51 53 55 53 56 54 60 59 63 68 70 71 79 83 73 65 62 53 30 35 36 36 37 37 37 41
4 3 4 8 12 16 20 24 35 37 30 41 43 46 49 35 40 44 46 51 54 50 56 52 54 56 59 65 73 74 75 78 86 89 74 73 61 58 37 38 40 39 40 44 47
9 8 8 9 12 15 20 25 31 35 36 39 39 47 47 41 38 43 46 50 47 49 51 54 55 59 61 66 73 74 79 80 80 87 86 67 25 69 58 33 30 35 40 42 43
12 11 8 10 14 17 20 23 28 32 36 39 46 49 48 44 44 42 43 46 43 51 54 57 57 60 62 66 68 74 78 81 83 89 95 89 84 79 60 61 42 34 34 31 32
14 13 9 11 14 17 21 24 27 31 34 37 39 41 49 29 48 45 49 44 48 51 55 58 62 63 62 64 68 70 84 93 94 94 94 100 95 86 83 70 64 46 38 29 28
19 16 14 12 13 18 20 24 26 30 32 35 40 36 45 42 42 44 44 44 49 52 56 58 61 61 60 65 68 74 80 88 95 97 99 101 102 95 88 87 69 67 37 35 27
20 18 16 14 13 17 14 21 25 29 29 33 37 37 40 42 44 44 47 44 49 52 56 59 60 62 65 67 68 73 85 89 94 98 100 102 103 104 96 89 85 64 63 29 28
22 20 19 16 14 17 15 17 24 29 28 33 35 38 43 44 39 50 47 50 49 53 56 56 60 65 68 69 70 76 79 83 86 99 105 103 101 105 104 95 90 87 69 66 44
24 22 20 18 16 15 17 17 22 26 27 30 35 37 41 45 41 48 48 49 48 53 56 60 61 64 68 68 74 78 77 84 88 93 103 108 105 103 105 108 99 91 87 66 66
25 24 23 20 17 16 16 16 27 26 27 28 32 36 39 40 47 38 50 52 53 56 55 59 62 66 69 70 71 74 75 85 87 92 95 105 108 110 112 114 92 98 90 86 66
26 26 24 22 20 18 18 16 22 27 24 29 28 36 30 43 30 41 45 50 52 54 59 58 62 66 71 73 70 71 77 77 86 87 88 96 103 104 108 107 102 103 95 88 78
23 27 27 25 20 19 17 17 20 22 28 24 30 33 35 37 45 42 49 50 52 54 57 59 59 64 68 74 73 70 70 79 78 84 87 91 93 101 102 106 106 104 101 95 89
25 26 29 28 22 20 19 17 17 22 25 25 28 31 33 35 36 39 42 46 51 50 52 55 58 60 64 67 71 73 70 71 54 78 87 89 65 93 101 103 110 109 105 103 95
27 31 27 30 26 24 21 19 19 20 18 25 26 31 30 34 36 39 41 42 42 41 50 50 53 57 60 64 65 66 69 69 70 53 76 81 86 81 92 96 101 107 106 106 102
Wind_Direction
193 197 222 237 250 256 258 262 266 261 263 263 263 263 264 265 266 267 267 267 268 267 268 266 266 264 264 265 264 264 263 263 265 262 263 257 254 255 259 254 255 252 249 249 251
192 213 219 216 233 242 255 259 266 270 271 266 261 262 262 265 264 264 263 266 264 265 265 265 266 266 265 264 264 265 266 265 265 264 260 260 257 255 258 259 255 252 249 244 247
188 210 201 182 234 250 255 256 262 265 265 265 266 266 264 266 266 267 268 268 267 268 268 269 270 269 268 267 266 267 267 262 264 263 263 262 262 256 251 255 256 253 250 247 238
234 242 247 254 258 256 262 265 267 268 270 271 271 272 273 273 272 271 271 272 272 272 271 270 269 269 268 268 268 268 268 268 265 266 266 260 259 259 255 252 254 257 252 248 242
245 252 264 275 276 279 282 282 290 291 290 289 289 289 287 285 283 282 281 280 280 280 279 279 279 279 279 278 276 274 268 266 265 263 263 262 259 258 259 257 250 245 252 250 245
275 306 67 67 59 58 8 329 320 313 309 304 295 294 292 290 286 284 282 282 282 281 280 280 282 281 279 279 281 279 275 270 265 268 272 269 265 259 254 253 252 247 245 249 243
97 94 93 91 66 33 357 344 341 338 330 323 318 310 303 307 305 309 313 319 318 315 314 311 308 303 303 299 293 292 287 285 281 271 266 263 261 260 258 258 253 247 244 243 239
109 106 92 84 80 41 4 10 353 357 346 337 347 342 346 336 318 305 355 355 348 342 336 330 323 320 312 315 304 301 299 296 295 279 279 271 263 259 257 255 251 251 249 241 239
107 105 98 71 56 36 26 16 6 2 356 13 18 13 22 25 25 24 26 24 14 359 1 352 350 348 330 293 283 286 308 331 315 303 290 282 277 270 259 253 252 250 248 245 242
131 105 97 315 53 41 25 17 11 11 6 17 23 27 30 324 321 11 26 22 17 13 360 323 335 336 297 332 321 336 309 329 323 301 290 283 278 274 268 265 258 249 250 247 243
136 210 124 91 25 34 333 21 11 17 22 21 22 29 26 28 27 21 21 22 16 14 8 0 0 352 337 338 338 350 357 354 342 328 323 303 261 263 276 273 269 254 249 243 245
202 119 91 321 19 345 21 18 16 14 16 23 21 359 26 26 22 293 330 17 331 10 2 3 359 353 353 350 353 353 3 3 354 346 348 335 311 259 259 270 274 278 264 247 243
156 241 302 18 15 14 11 15 14 15 13 21 22 21 24 23 24 20 19 13 346 2 5 3 358 358 360 359 1 358 4 9 4 2 2 348 333 330 328 321 312 290 280 270 265
187 296 347 315 335 1 4 11 11 11 12 16 17 26 25 23 23 17 14 13 8 7 5 0 2 358 6 4 8 9 9 14 14 12 10 12 10 336 331 315 303 297 292 280 271
232 269 323 331 353 338 2 5 11 9 10 10 13 23 24 25 20 16 17 13 9 4 1 2 5 4 3 358 13 9 14 16 17 18 18 17 16 13 346 315 306 302 297 290 281
269 293 315 333 343 345 357 1 7 8 4 5 10 19 21 22 19 17 12 11 6 4 1 2 0 7 10 3 16 13 16 17 18 20 21 19 355 19 14 340 313 296 292 291 292
262 282 303 320 328 336 352 356 1 7 4 2 11 13 13 26 21 20 14 8 360 5 9 2 12 8 9 9 7 16 16 19 21 23 23 25 24 21 14 17 0 333 321 318 311
264 284 286 306 322 336 343 350 354 4 4 1 6 11 14 360 18 15 13 10 8 11 9 7 5 12 9 2 6 3 19 20 19 22 23 24 25 23 21 18 18 358 344 338 330
258 265 282 300 318 347 340 341 349 358 360 359 9 6 16 16 21 14 11 10 6 8 6 7 7 11 7 11 7 16 14 20 23 22 23 24 24 26 23 22 15 15 340 346 342
250 260 271 288 304 323 330 335 345 348 357 359 3 2 9 13 13 14 10 14 8 5 3 3 4 5 10 10 10 11 22 22 22 25 26 25 24 24 25 24 23 15 16 359 348
250 257 262 272 300 312 325 327 337 346 353 352 356 1 7 12 7 16 11 14 13 8 3 6 8 7 13 10 10 13 15 20 15 22 24 25 26 26 26 25 25 23 14 15 7
246 258 261 265 285 285 329 319 330 336 345 354 349 1 356 9 10 15 12 10 7 10 6 7 11 15 13 9 13 15 12 18 23 22 23 23 24 25 25 26 25 24 21 13 15
247 252 259 262 269 277 293 306 323 331 337 343 348 356 0 357 9 359 12 10 8 9 8 8 8 9 14 13 12 13 12 19 16 21 21 22 23 24 23 23 22 24 23 20 14
248 249 255 260 265 269 290 293 315 326 327 337 348 349 352 351 352 9 357 12 9 4 7 8 7 7 7 11 12 11 15 12 19 18 17 21 24 23 25 23 22 24 23 23 19
257 248 251 255 260 263 270 282 303 317 330 329 338 345 355 3 350 6 355 6 9 6 5 4 7 4 4 6 10 13 8 16 14 16 20 21 23 25 24 24 24 24 24 24 24
254 255 250 250 258 264 268 275 288 307 319 318 330 338 343 352 358 353 5 360 5 8 7 3 3 3 3 9 6 10 11 11 10 15 19 19 21 21 23 23 24 24 24 25 25
256 251 254 250 254 260 267 269 282 293 301 313 321 333 336 342 347 354 347 351 359 5 5 4 360 3 1 6 7 7 8 12 11 14 15 16 19 19 19 22 24 24 24 24 26